Location: Albert
(44.3172°N, 77.1347°W)
Time: 07:28:58
(UTC+00:00)

ISS - Pass Details

Date: 25 October 2021
Orbit: 417 x 422 km, 51.6° (Epoch: 07 December)

Event Time Altitude Azimuth Distance (km) Brightness Sun altitude
Exits shadow 08:58:44 17° 101° (E) 1,155 -0.9 -28.8°
Drops below altitude 10° 08:59:57 10° 84° (E) 1,498 0.0 -28.6°
Sets 09:02:21 0° 68° (ENE) 2,365 1.3 -28.1°
